This is the latest recevied weather packets stored in our database for station/object KC4LZN. If no packets are shown the sender has not sent any weather packets the latest 10 day(s).
| Time | Temp. | Humidity | Pressure | Rain* | Wind** | Luminosity | Snow |
|---|---|---|---|---|---|---|---|
| 1777562522 | 27.78° C | 66% | 1013.3 hPa | 0 mm | - | 785 W/m² | - |
| 1777562220 | 27.78° C | 67% | 1013.3 hPa | 0 mm | - | 806 W/m² | - |
| 1777561917 | 27.22° C | 69% | 1013.1 hPa | 0 mm | - | 419 W/m² | - |
| 1777561614 | 26.67° C | 70% | 1013.1 hPa | 0 mm | - | 828 W/m² | - |
| 1777561310 | 26.67° C | 71% | 1012.9 hPa | 0 mm | - | 605 W/m² | - |
| 1777561010 | 26.67° C | 72% | 1013.2 hPa | 0 mm | - | 713 W/m² | - |
| 1777560705 | 26.67° C | 73% | 1013.2 hPa | 0 mm | - | 691 W/m² | - |
| 1777560403 | 26.11° C | 73% | 1013.3 hPa | 0 mm | - | 545 W/m² | - |
| 1777560101 | 26.11° C | 73% | 1013.4 hPa | 0 mm | - | 754 W/m² | - |
| 1777559797 | 26.11° C | 74% | 1013.2 hPa | 0 mm | - | 675 W/m² | - |
| 1777559494 | 26.11° C | 75% | 1013.1 hPa | 0 mm | - | 642 W/m² | - |
| 1777559191 | 25.56° C | 76% | 1012.9 hPa | 0 mm | - | 615 W/m² | - |
| 1777558891 | 25.56° C | 76% | 1013 hPa | 0 mm | - | 606 W/m² | - |
| 1777558587 | 25.56° C | 78% | 1012.9 hPa | 0 mm | - | 284 W/m² | - |
| 1777558282 | 25.56° C | 78% | 1013 hPa | 0 mm | - | 633 W/m² | - |
| 1777557979 | 25° C | 78% | 1013 hPa | 0 mm | - | 595 W/m² | - |
| 1777557676 | 24.44° C | 79% | 1012.9 hPa | 0 mm | - | 519 W/m² | - |
| 1777557373 | 24.44° C | 80% | 1012.8 hPa | 0 mm | - | 328 W/m² | - |
| 1777557069 | 23.89° C | 82% | 1012.6 hPa | 0 mm | - | 234 W/m² | - |
| 1777556764 | 23.89° C | 83% | 1012.6 hPa | 0 mm | - | 281 W/m² | - |
| 1777556461 | 23.89° C | 84% | 1012.6 hPa | 0 mm | - | 214 W/m² | - |
| 1777556161 | 23.33° C | 85% | 1012.8 hPa | 0 mm | - | 186 W/m² | - |
| 1777555857 | 23.33° C | 86% | 1012.9 hPa | 0 mm | - | 163 W/m² | - |
| 1777555552 | 23.33° C | 87% | 1012.7 hPa | 0 mm | - | 132 W/m² | - |
| 1777555250 | 22.78° C | 87% | 1012.8 hPa | 0 mm | - | 122 W/m² | - |
* Rain latest hour (hover to see other rain measurements)
** Current wind speed in m/s (hover to see current wind gust speed)